This is the latest recevied weather packets stored in our database for station/object N9CQS-15. If no packets are shown the sender has not sent any weather packets the latest 10 day(s).
| Time | Temp. | Humidity | Pressure | Rain* | Wind** | Luminosity | Snow |
|---|---|---|---|---|---|---|---|
| 1777851542 | 18.33° C | 49% | 1009 hPa | 0 mm | - | - | - |
| 1777850942 | 18.33° C | 50% | 1009.1 hPa | 0 mm | - | - | - |
| 1777850342 | 18.33° C | 52% | 1009.2 hPa | 0 mm | - | - | - |
| 1777849742 | 18.33° C | 51% | 1009.2 hPa | 0 mm | - | - | - |
| 1777849141 | 18.33° C | 51% | 1009.2 hPa | 0 mm | - | - | - |
| 1777848541 | 17.78° C | 51% | 1009.3 hPa | 0 mm | - | - | - |
| 1777847942 | 17.78° C | 51% | 1009.5 hPa | 0 mm | - | - | - |
| 1777847341 | 18.33° C | 50% | 1009.2 hPa | 0 mm | - | - | - |
| 1777846741 | 17.78° C | 52% | 1009.3 hPa | 0 mm | - | - | - |
| 1777846142 | 17.22° C | 53% | 1009.5 hPa | 0 mm | - | - | - |
| 1777845542 | 17.22° C | 53% | 1009.7 hPa | 0 mm | - | - | - |
| 1777844942 | 17.22° C | 53% | 1009.5 hPa | 0 mm | - | - | - |
| 1777844342 | 17.22° C | 51% | 1009.7 hPa | 0 mm | - | - | - |
| 1777843742 | 16.67° C | 54% | 1010.3 hPa | 0 mm | - | - | - |
| 1777843143 | 17.22° C | 52% | 1010.4 hPa | 0 mm | - | - | - |
| 1777842541 | 17.22° C | 52% | 1010.4 hPa | 0 mm | - | - | - |
| 1777841942 | 16.67° C | 52% | 1010.6 hPa | 0 mm | - | - | - |
| 1777841341 | 17.22° C | 52% | 1010.4 hPa | 0 mm | - | - | - |
| 1777840742 | 16.67° C | 53% | 1010.4 hPa | 0 mm | - | - | - |
| 1777840142 | 16.11° C | 54% | 1011 hPa | 0 mm | - | - | - |
| 1777839541 | 16.11° C | 53% | 1011.4 hPa | 0 mm | - | - | - |
| 1777838941 | 16.11° C | 52% | 1011.7 hPa | 0 mm | - | - | - |
| 1777838342 | 16.11° C | 52% | 1011.7 hPa | 0 mm | - | - | - |
| 1777837742 | 16.11° C | 51% | 1012.4 hPa | 0 mm | - | - | - |
| 1777837141 | 16.67° C | 51% | 1012.5 hPa | 0 mm | - | - | - |
* Rain latest hour (hover to see other rain measurements)
** Current wind speed in m/s (hover to see current wind gust speed)